TimeGMT,TemperatureF,Dew PointF,Humidity,Sea Level PressureIn,VisibilityMPH,Wind Direction,Wind SpeedMPH,Gust SpeedMPH,PrecipitationIn,Events,Conditions,WindDirDegrees,DateUTC
12:20 AM,42.8,41.0,93,29.62,6.2,SE,2.3,-,N/A,,Unknown,140,2012-11-17 00:20:00
12:50 AM,42.8,41.0,93,29.62,-9999.0,Calm,Calm,-,N/A,,Clear,0,2012-11-17 00:50:00
1:20 AM,42.8,39.2,87,29.62,6.2,Variable,2.3,-,N/A,,Unknown,0,2012-11-17 01:20:00
1:50 AM,42.8,39.2,87,29.59,-9999.0,Variable,2.3,-,N/A,,Clear,0,2012-11-17 01:50:00
2:20 AM,44.6,39.2,81,29.59,6.2,Variable,3.5,-,N/A,,Unknown,0,2012-11-17 02:20:00
2:50 AM,43,39,81,29.60,25,NNW,1.2,,,Rain,Rain,340,2012-11-17 02:50:00
2:50 AM,44.6,39.2,81,29.59,-9999.0,Variable,3.5,-,N/A,,Clear,0,2012-11-17 02:50:00
3:20 AM,42.8,39.2,87,29.59,6.2,Variable,2.3,-,N/A,,Unknown,0,2012-11-17 03:20:00
3:50 AM,42.8,39.2,87,29.59,6.2,Variable,2.3,-,N/A,,Unknown,0,2012-11-17 03:50:00
4:20 AM,41.0,39.2,93,29.56,6.2,North,3.5,-,N/A,,Unknown,350,2012-11-17 04:20:00
4:50 AM,41.0,39.2,93,29.56,-9999.0,Calm,Calm,-,N/A,,Clear,0,2012-11-17 04:50:00
5:20 AM,41.0,39.2,93,29.56,-9999.0,Calm,Calm,-,N/A,,Clear,0,2012-11-17 05:20:00
5:50 AM,40,40,98,29.59,11,NE,1.2,,,,,50,2012-11-17 05:50:00
5:50 AM,41.0,39.2,93,29.56,6.2,Calm,Calm,-,N/A,,Partly Cloudy,0,2012-11-17 05:50:00
6:20 AM,41.0,39.2,93,29.56,6.2,Calm,Calm,-,N/A,,Partly Cloudy,0,2012-11-17 06:20:00
6:50 AM,39.2,37.4,93,29.56,-9999.0,Variable,2.3,-,N/A,,Clear,0,2012-11-17 06:50:00
7:20 AM,39.2,37.4,93,29.56,6.2,Variable,3.5,-,N/A,Fog,Unknown,0,2012-11-17 07:20:00
7:50 AM,39.2,37.4,93,29.56,6.2,West,4.6,-,N/A,Fog,Unknown,270,2012-11-17 07:50:00
8:20 AM,39.2,37.4,93,29.56,6.2,Calm,Calm,-,N/A,,Unknown,0,2012-11-17 08:20:00
8:50 AM,37,37,98,29.58,2,NE,2.3,,,Fog,Fog,50,2012-11-17 08:50:00
8:50 AM,39.2,37.4,93,29.56,5.6,ENE,2.3,-,N/A,Fog,Fog,60,2012-11-17 08:50:00
9:20 AM,37.4,35.6,93,29.56,6.2,NNW,2.3,-,N/A,Fog,Unknown,340,2012-11-17 09:20:00
9:50 AM,39.2,37.4,93,29.56,-9999.0,WSW,5.8,-,N/A,,Clear,250,2012-11-17 09:50:00
10:20 AM,42.8,35.6,76,29.56,-9999.0,WSW,8.1,-,N/A,,Clear,240,2012-11-17 10:20:00
10:50 AM,44.6,35.6,71,29.56,-9999.0,SW,8.1,-,N/A,,Clear,230,2012-11-17 10:50:00
11:20 AM,44.6,35.6,71,29.56,-9999.0,WSW,9.2,-,N/A,,Clear,240,2012-11-17 11:20:00
11:50 AM,45,33,53,29.56,25,WSW,12.7,,,,,250,2012-11-17 11:50:00
11:50 AM,44.6,35.6,71,29.53,-9999.0,WSW,8.1,-,N/A,,Clear,250,2012-11-17 11:50:00
12:20 PM,44.6,35.6,71,29.53,-9999.0,WSW,4.6,-,N/A,,Clear,250,2012-11-17 12:20:00
12:50 PM,46.4,35.6,66,29.53,-9999.0,SW,6.9,-,N/A,,Clear,230,2012-11-17 12:50:00
1:20 PM,46.4,33.8,62,29.53,-9999.0,WSW,6.9,-,N/A,,Clear,240,2012-11-17 13:20:00
1:50 PM,46.4,35.6,66,29.53,-9999.0,SW,5.8,-,N/A,,Clear,230,2012-11-17 13:50:00
2:20 PM,46.4,33.8,62,29.53,-9999.0,SSW,4.6,-,N/A,,Clear,210,2012-11-17 14:20:00
2:50 PM,44,33,54,29.54,28,SSW,5.8,,,,,210,2012-11-17 14:50:00
2:50 PM,44.6,33.8,66,29.53,6.2,SW,8.1,-,N/A,,Partly Cloudy,220,2012-11-17 14:50:00
3:20 PM,42.8,33.8,70,29.53,6.2,SW,10.4,-,N/A,,Partly Cloudy,220,2012-11-17 15:20:00
3:50 PM,41.0,33.8,76,29.53,6.2,SW,8.1,-,N/A,,Partly Cloudy,220,2012-11-17 15:50:00
4:20 PM,41.0,35.6,81,29.53,6.2,WSW,4.6,-,N/A,,Partly Cloudy,240,2012-11-17 16:20:00
4:50 PM,39.2,35.6,87,29.53,-9999.0,Variable,3.5,-,N/A,,Clear,0,2012-11-17 16:50:00
5:20 PM,39.2,35.6,87,29.53,-9999.0,SW,8.1,-,N/A,,Clear,230,2012-11-17 17:20:00
5:50 PM,39,33,73,29.54,28,WSW,11.5,,,,,240,2012-11-17 17:50:00
5:50 PM,39.2,33.8,81,29.53,-9999.0,SW,9.2,-,N/A,,Clear,230,2012-11-17 17:50:00
6:20 PM,39.2,33.8,81,29.53,-9999.0,SW,6.9,-,N/A,,Clear,220,2012-11-17 18:20:00
6:50 PM,39.2,33.8,81,29.53,-9999.0,SW,6.9,-,N/A,,Clear,220,2012-11-17 18:50:00
7:20 PM,37.4,32.0,81,29.53,-9999.0,WSW,4.6,-,N/A,,Clear,240,2012-11-17 19:20:00
7:50 PM,37.4,32.0,81,29.53,-9999.0,SW,6.9,-,N/A,,Clear,230,2012-11-17 19:50:00
8:20 PM,37.4,30.2,75,29.53,-9999.0,Variable,3.5,-,N/A,,Clear,0,2012-11-17 20:20:00
8:50 PM,37,30,67,29.57,31,SW,6.9,,,,,230,2012-11-17 20:50:00
8:50 PM,35.6,30.2,81,29.56,-9999.0,SSW,5.8,-,N/A,,Clear,210,2012-11-17 20:50:00
9:20 PM,35.6,30.2,81,29.56,-9999.0,SW,4.6,-,N/A,,Clear,230,2012-11-17 21:20:00
9:50 PM,35.6,30.2,81,29.56,-9999.0,SW,9.2,-,N/A,,Clear,230,2012-11-17 21:50:00
10:20 PM,35.6,30.2,81,29.56,-9999.0,SW,2.3,-,N/A,,Clear,220,2012-11-17 22:20:00
10:50 PM,35.6,30.2,81,29.56,-9999.0,SW,6.9,-,N/A,,Clear,220,2012-11-17 22:50:00
11:20 PM,35.6,30.2,81,29.56,6.2,WSW,8.1,-,N/A,,Unknown,240,2012-11-17 23:20:00
11:50 PM,35.6,30.2,81,29.59,-9999.0,SW,6.9,-,N/A,,Clear,230,2012-11-17 23:50:00